Weather History for Kill Devil Hills, NC

Change the Weather History Date:

Monday, December 31, 2012

  Actual Average (KMQI) Record (KMQI)
Temperature  
Mean Temperature 39 °F -  
Max Temperature 46 °F 49 °F 75 °F (1973)
Min Temperature 32 °F 36 °F 19 °F (1993)
Degree Days  
Heating Degree Days 26    
Moisture  
Dew Point 28 °F    
Average Humidity 62    
Maximum Humidity 83    
Minimum Humidity 43    
Precipitation  
Precipitation 0.00 in - - ()
Sea Level Pressure  
Sea Level Pressure 30.25 in    
Wind  
Wind Speed 5 mph (WSW)    
Max Wind Speed 9 mph    
Max Gust Speed 16 mph    
Visibility 10 miles    
Events      
Averages and records for this station are not official NWS values.
T = Trace of Precipitation, MM = Missing Value Source: NWS Daily Summary

Daily Weather History Graph

Daily Weather History Graph

Search for Another Location

Airport:

Trip Planner

Search our weather history database for the weather conditions in past years. The results will help you decide how hot, cold, wet, or windy it might be!

Date:

Astronomy

Dec. 31, 2012 Rise Set
Actual Time 7:13 AM EST 4:58 PM EST
Civil Twilight 6:44 AM EST 5:27 PM EST
Nautical Twilight 6:12 AM EST 5:59 PM EST
Astronomical Twilight 5:41 AM EST 6:30 PM EST
Moon 8:20 PM EST (12/31) 8:59 AM EST (12/31)
Length of Visible Light 10h 42m
Length of Day
9h 45m
Waning Gibbous, 90% of the Moon is Illuminated
Dec 31
Waning Gibbous
Jan 4
Last Quarter
Jan 11
New
Jan 18
First Quarter
Jan 26
Full

Hourly Weather History & Observations

Time (EST) Temp. Windchill Dew Point Humidity Pressure Visibility Wind Dir Wind Speed Gust Speed Precip Events Conditions
12:15 AM 39.6 °F 37.4 °F 24.3 °F 54% 30.33 in 10.0 mi WNW 3.5 mph - N/A   Clear
12:35 AM 38.8 °F 33.8 °F 24.3 °F 56% 30.33 in 10.0 mi WNW 6.9 mph - N/A   Clear
12:55 AM 38.5 °F 33.4 °F 24.4 °F 57% 30.33 in 10.0 mi WNW 6.9 mph - N/A   Clear
1:15 AM 37.9 °F 32.7 °F 24.1 °F 57% 30.33 in 10.0 mi NW 6.9 mph - N/A   Clear
1:35 AM 37.2 °F 32.6 °F 22.5 °F 55% 30.33 in 10.0 mi NW 5.8 mph - N/A   Clear
1:55 AM 36.3 °F - 23.0 °F 59% 30.34 in 10.0 mi Calm Calm - N/A   Clear
2:15 AM 35.8 °F 31.9 °F 24.1 °F 62% 30.35 in 10.0 mi West 4.6 mph - N/A   Clear
2:55 AM 35.2 °F 32.4 °F 23.7 °F 63% 30.35 in 10.0 mi WNW 3.5 mph - N/A   Clear
3:15 AM 34.9 °F 32.0 °F 24.4 °F 66% 30.33 in 10.0 mi WNW 3.5 mph - N/A   Clear
3:35 AM 34.3 °F 31.4 °F 24.4 °F 67% 30.33 in 10.0 mi NW 3.5 mph - N/A   Clear
3:55 AM 34.2 °F - 24.3 °F 67% 30.33 in 10.0 mi Calm Calm - N/A   Clear
4:15 AM 33.6 °F - 25.2 °F 71% 30.32 in 10.0 mi Calm Calm - N/A   Clear
4:35 AM 33.4 °F - 26.1 °F 74% 30.32 in 10.0 mi Calm Calm - N/A   Clear
4:55 AM 33.4 °F 30.4 °F 26.2 °F 75% 30.32 in 10.0 mi WNW 3.5 mph - N/A   Clear
5:15 AM 33.3 °F 30.2 °F 26.6 °F 77% 30.33 in 10.0 mi West 3.5 mph - N/A   Clear
5:35 AM 33.6 °F - 26.6 °F 75% 30.33 in 10.0 mi Calm Calm - N/A   Clear
5:55 AM 33.6 °F - 27.3 °F 78% 30.33 in 10.0 mi Calm Calm - N/A   Clear
6:15 AM 33.3 °F 28.9 °F 27.9 °F 81% 30.33 in 10.0 mi WSW 4.6 mph - N/A   Clear
6:35 AM 32.9 °F 28.5 °F 28.2 °F 83% 30.33 in 10.0 mi West 4.6 mph - N/A   Clear
6:55 AM 33.6 °F 29.4 °F 27.9 °F 79% 30.33 in 10.0 mi West 4.6 mph - N/A   Clear
7:15 AM 34.0 °F 29.8 °F 27.7 °F 78% 30.33 in 10.0 mi West 4.6 mph - N/A   Clear
7:55 AM 34.7 °F 30.6 °F 28.6 °F 78% 30.33 in 10.0 mi WSW 4.6 mph - N/A   Clear
8:15 AM 35.6 °F 31.7 °F 29.1 °F 77% 30.33 in 10.0 mi WSW 4.6 mph - N/A   Clear
8:35 AM 36.7 °F 32.0 °F 28.9 °F 74% 30.33 in 10.0 mi West 5.8 mph - N/A   Clear
8:55 AM 37.4 °F 32.8 °F 29.1 °F 72% 30.34 in 10.0 mi West 5.8 mph - N/A   Clear
9:15 AM 37.6 °F 32.3 °F 28.2 °F 69% 30.35 in 10.0 mi West 6.9 mph - N/A   Clear
9:35 AM 37.2 °F 31.9 °F 27.3 °F 67% 30.36 in 10.0 mi West 6.9 mph - N/A   Clear
9:55 AM 37.2 °F 33.6 °F 28.0 °F 69% 30.36 in 10.0 mi West 4.6 mph - N/A   Clear
10:15 AM 37.6 °F 34.0 °F 28.9 °F 71% 30.36 in 10.0 mi West 4.6 mph - N/A   Clear
10:35 AM 38.3 °F 33.9 °F 27.1 °F 64% 30.35 in 10.0 mi WSW 5.8 mph - N/A   Clear
10:55 AM 38.8 °F 33.8 °F 25.9 °F 60% 30.33 in 10.0 mi West 6.9 mph - N/A   Clear
11:15 AM 39.6 °F 34.0 °F 25.3 °F 57% 30.32 in 10.0 mi WSW 8.1 mph - N/A   Clear
11:35 AM 40.3 °F 35.5 °F 25.5 °F 56% 30.30 in 10.0 mi SW 6.9 mph - N/A   Clear
11:55 AM 41.5 °F 37.1 °F 24.6 °F 51% 30.29 in 10.0 mi WSW 6.9 mph - N/A   Clear
12:15 PM 42.4 °F 37.5 °F 22.5 °F 45% 30.28 in 10.0 mi WSW 8.1 mph - N/A   Clear
12:35 PM 43.3 °F 38.1 °F 21.9 °F 43% 30.27 in 10.0 mi West 9.2 mph - N/A   Clear
12:55 PM 43.5 °F 38.3 °F 22.3 °F 43% 30.26 in 10.0 mi SW 9.2 mph - N/A   Clear
1:15 PM 43.3 °F 38.6 °F 24.1 °F 47% 30.24 in 10.0 mi WSW 8.1 mph - N/A   Clear
1:35 PM 44.2 °F 40.3 °F 23.2 °F 43% 30.22 in 10.0 mi WSW 6.9 mph 16.1 mph N/A   Clear
1:55 PM 44.4 °F 41.2 °F 23.5 °F 44% 30.22 in 10.0 mi SW 5.8 mph - N/A   Clear
2:15 PM 44.6 °F 40.2 °F 25.3 °F 47% 30.20 in 10.0 mi WSW 8.1 mph - N/A   Clear
2:35 PM 44.4 °F 41.2 °F 23.5 °F 44% 30.20 in 10.0 mi SW 5.8 mph - N/A   Clear
2:55 PM 44.2 °F 39.7 °F 25.0 °F 47% 30.20 in 10.0 mi WSW 8.1 mph - N/A   Clear
3:15 PM 44.6 °F 40.7 °F 25.3 °F 47% 30.19 in 10.0 mi SW 6.9 mph - N/A   Clear
3:35 PM 44.4 °F 41.2 °F 26.1 °F 49% 30.20 in 10.0 mi WSW 5.8 mph - N/A   Clear
3:55 PM 44.6 °F 39.7 °F 25.5 °F 47% 30.19 in 10.0 mi WSW 9.2 mph - N/A   Clear
4:15 PM 44.4 °F 40.0 °F 25.2 °F 47% 30.19 in 10.0 mi SW 8.1 mph - N/A   Clear
4:35 PM 44.2 °F 41.0 °F 26.8 °F 50% 30.19 in 10.0 mi SW 5.8 mph - N/A   Clear
4:55 PM 43.9 °F 39.9 °F 28.8 °F 55% 30.19 in 10.0 mi SW 6.9 mph - N/A   Clear
5:35 PM 43.5 °F 40.1 °F 29.8 °F 59% 30.18 in 10.0 mi SW 5.8 mph - N/A   Clear
5:55 PM 43.3 °F 39.9 °F 30.7 °F 61% 30.18 in 10.0 mi SW 5.8 mph - N/A   Clear
6:15 PM 43.3 °F 40.7 °F 31.3 °F 62% 30.17 in 10.0 mi SW 4.6 mph - N/A   Clear
6:35 PM 43.3 °F 40.7 °F 31.5 °F 63% 30.17 in 10.0 mi SSW 4.6 mph - N/A   Clear
6:55 PM 43.3 °F 39.9 °F 31.8 °F 64% 30.17 in 10.0 mi SW 5.8 mph - N/A   Clear
7:15 PM 43.7 °F 41.1 °F 31.5 °F 62% 30.19 in 10.0 mi WSW 4.6 mph - N/A   Clear
7:35 PM 43.7 °F 40.3 °F 32.0 °F 63% 30.18 in 10.0 mi SW 5.8 mph - N/A   Clear
7:55 PM 43.5 °F 40.1 °F 32.4 °F 65% 30.16 in 10.0 mi SSW 5.8 mph - N/A   Mostly Cloudy
8:15 PM 43.7 °F 39.7 °F 32.5 °F 65% 30.15 in 10.0 mi SW 6.9 mph - N/A   Overcast
8:35 PM 43.9 °F 40.5 °F 32.5 °F 64% 30.14 in 10.0 mi SW 5.8 mph - N/A   Overcast
8:55 PM 44.4 °F 40.0 °F 32.9 °F 64% 30.14 in 10.0 mi SW 8.1 mph - N/A   Overcast
9:15 PM 44.4 °F 40.0 °F 33.4 °F 65% 30.14 in 10.0 mi SW 8.1 mph - N/A   Overcast
9:35 PM 44.6 °F 40.7 °F 33.1 °F 64% 30.12 in 10.0 mi SW 6.9 mph - N/A   Overcast
9:55 PM 44.8 °F 41.0 °F 32.7 °F 63% 30.12 in 10.0 mi SW 6.9 mph - N/A   Overcast
10:15 PM 45.0 °F 41.8 °F 33.1 °F 63% 30.12 in 10.0 mi SW 5.8 mph - N/A   Overcast
10:35 PM 45.1 °F 41.4 °F 33.6 °F 64% 30.12 in 10.0 mi SW 6.9 mph - N/A   Overcast
10:55 PM 45.7 °F 41.5 °F 34.0 °F 64% 30.12 in 10.0 mi SW 8.1 mph - N/A   Scattered Clouds
11:15 PM 46.4 °F 42.4 °F 34.5 °F 63% 30.12 in 10.0 mi WSW 8.1 mph - N/A   Clear
11:35 PM 46.2 °F 42.7 °F 34.9 °F 65% 30.11 in 10.0 mi WSW 6.9 mph - N/A   Clear
11:55 PM 46.4 °F 42.4 °F 35.6 °F 66% 30.11 in 10.0 mi SW 8.1 mph - N/A   Clear